RAPIDEYE 3

Satellite information

Favourite Embed

Satellite Type and Status

PAYLOADIN ORBIT

Key statistics

Satellite RAPIDEYE 3 at a glance.

Uptime

6095

Days in orbit

Revolutions

≈ 15.0

Per day

Orbit

SSO

Sun Synchronous Orbit

Inclination

97.4

Latest

Satellite identification and parameters

Extended collection of information and parameters for RAPIDEYE 3.

Object identification

Identified? True

Debris? False

Object name: RAPIDEYE 3

International designator: 2008-040D

Object number (NORAD): 33315

Object ID (CCSDS): 33315

Country: GERMANY (GER)

Current information (Y/N): Y

RCS size: MEDIUM

Orbital parameters

Period: 95.693 minutes

Inclination: 97.4309 deg

SMA: 6930.221 km

Apoapsis: 559.604 km

Periapsis: 544.567 km

RAAN: 166.9413 deg

Eccentricy: 0.0010849

Argument of periapsis: 1.9245 deg

Mean anomaly: 358.2021 deg

Mean motion: 15.04811704 rev/day

Mean motion (dot): 0.00002698 rev/day2

B* drag term: 0.00019509 1/REarth

Two-line elements (TLE)

Creation date: May 6, 2025, 3:54 a.m.

Reference frame: TEME

Reference center: EARTH

Epoch: May 5, 2025, 7:59 p.m. UTC

TLE line 0: 0 RAPIDEYE 3

TLE line 1: 1 33315U 08040D 25125.83318558 .00002698 00000-0 19509-3 0 9995

TLE line 2: 2 33315 97.4309 166.9413 0010849 1.9245 358.2021 15.04811704904973

Live tracking on map

Real-time ground track for satellite RAPIDEYE 3.

In-orbit conjunctions

There are no conjunctions computed for RAPIDEYE 3, at the moment. Check back to stay up to date, as we update our databases every day.

Go to all conjunctions

Associated space launch

German Earth observation satellites

RAPIDEYE 3 was lifted into orbit during the mission ‘Dnepr | RapidEye 1 to 5’, on board a Dnepr space rocket.

The launch took place on Aug. 29, 2008, 7:15 a.m. from 109/95.

For more information about the launch, click the button.

Launch to space Dnepr | RapidEye 1 to 5
Dnepr | RapidEye 1 to 5

Agency: N/A

Status: Launch Successful

Launch date: Aug. 29, 2008, 7:15 a.m. UTC

Rocket: Dnepr

Launch pad: 109/95

Location: Baikonur Cosmodrome, Republic of Kazakhstan

...

Latest news about this satellite

There are no fresh news available about this satellite. Check back as we update our databases every day.


Newsletter sign-up

Weekly statistics, charts and insights to help you stay on top of the space industry.